Regional Weather Roundup
Issued by NWS

Home | Current Version | Previous Version | Graphics & Text | Print | Product List | Glossary On
Versions: 1 2 3 4 5 6 7 8 9 10 11 12 13 14 15 16 17 18 19 20 21 22 23 24 25 26 27 28 29 30 31 32 33 34 35 36 37 38 39 40 41 42 43 44 45 46 47 48 49 50
000
ASUS43 KLOT 180208
RWRIL

ILLINOIS REGIONAL WEATHER ROUNDUP
NATIONAL WEATHER SERVICE CHICAGO/ROMEOVILLE IL
800 PM CST FRI NOV 17 2017

NOTE: "FAIR" INDICATES FEW OR NO CLOUDS BELOW 12,000 FEET WITH NO
SIGNIFICANT WEATHER AND/OR OBSTRUCTIONS TO VISIBILITY.

* THESE STATIONS ARE NOT UNDER NWS QUALITY CONTROL. THEY ALSO MAY NOT
  REPORT WEATHER SUCH AS PRECIPITATION OR FOG.

ILZ001-002-007-009-015-016-024-180300-
NORTHWEST ILLINOIS

CITY           SKY/WX    TMP DP  RH WIND       PRES   REMARKS
MOLINE         CLOUDY    49  44  83 S6        29.57S HAZE
STERLING*      LGT RAIN N/A N/A N/A MISG        N/A
SAVANNA*       DRIZZLE   42  42  99 CALM      29.59F
$$

ILZ003-004-008-010-011-017-018-180300-
NORTH CENTRAL ILLINOIS

CITY           SKY/WX    TMP DP  RH WIND       PRES   REMARKS
ROCKFORD       LGT RAIN  42  41  96 S12       29.62F FOG
FREEPORT*      DRIZZLE   40  40  99 S7        29.60F
ROCHELLE*      RAIN      42  41  99 S9        29.60F
DE KALB*       LGT RAIN  41  41  99 S16       29.61F
PERU*          CLOUDY    46  42  89 S14G22    29.61F
$$

ILZ005-006-012>014-019>023-180300-
NORTHEAST ILLINOIS

CITY           SKY/WX    TMP DP  RH WIND       PRES   REMARKS
CHICAGO-OHARE  LGT RAIN  43  40  89 S12       29.62F FOG
CHICAGO-MIDWAY DRIZZLE   43  42  97 S13       29.63F FOG
AURORA         LGT RAIN  42  41  96 S10       29.62F FOG
LANSING*       DRIZZLE   42  41  97 S10       29.66F
JOLIET*        CLOUDY    45  43  95 S10       29.64F
WAUKEGAN       LGT RAIN  43  42  97 S12       29.60F FOG
DUPAGE AIRPORT LGT RAIN  42  42 100 S14       29.61F FOG
KANKAKEE*      DRIZZLE   45  42  88 S16G22    29.67F
WHEELING       CLOUDY    44  43  96 S16       29.63F FOG
MORRIS*        LGT RAIN  44  42  93 S13       29.62F
ROMEOVILLE*    LGT RAIN  42  41  96 S14       29.63F
NORTHERLY ISL    N/A     42  39  89 S15         N/A
$$

LMZ740>746-180300-
SOUTHERN LAKE MICHIGAN

STATION/POSITION SKY/WX   TEMP    WIND        PRES    VSBY  WAVE
                          AIR SEA DIR/SP/G                  HT/PER
                          (F)     (DEG/KT/KT) (MB)    (MI)  (FT/S)
SOUTHERN BUOY              47 50  150/ 25/ 29 1004.3          7/ 6
HARRISON CRIB              44     180/ 27/ 30   N/A
BURNHAM HARBOR             42     180/  8/ 16   N/A
BURNS HARBOR               43     170/ 14/ 21 1004.7F
MICHIGAN CITY              42     150/ 19/ 22   N/A
$$

ILZ025>027-034>036-040-047-049-050-058-095>099-180300-
WEST-CENTRAL ILLINOIS

CITY           SKY/WX    TMP DP  RH WIND       PRES   REMARKS
QUINCY         CLOUDY    57  50  77 S13       29.56F
GALESBURG*     CLOUDY    49  47  93 S7        29.58F
MACOMB*        CLOUDY    52  47  84 S16       29.60F
JACKSONVILLE*  CLOUDY    54  48  80 S17       29.62F
PITTSFIELD*    CLOUDY    55  49  83 SE12      29.61F
$$

ILZ028>032-037-038-041>044-048-051>054-059>061-180300-
CENTRAL ILLINOIS

CITY           SKY/WX    TMP DP  RH WIND       PRES   REMARKS
PONTIAC        CLOUDY    46  46  99 S22       29.64F
BLOOMINGTON    LGT RAIN  46  44  93 S22       29.64F
DECATUR        CLOUDY    47  43  86 S17G24    29.69F
PEORIA         LGT RAIN  48  47  96 S12       29.61F
LACON*         CLOUDY    49  45  88 S15G23    29.59F
LINCOLN*       CLOUDY    48  46  90 S18G24    29.65F
SPRINGFIELD    CLOUDY    52  46  80 S16       29.66F
TAYLORVILLE    CLOUDY    48  43  83 SE16      29.68F
$$

ILZ033-039-045-046-055>057-062-063-180300-
EAST-CENTRAL ILLINOIS

CITY           SKY/WX    TMP DP  RH WIND       PRES   REMARKS
CHAMPAIGN      LGT RAIN  46  43  89 S18       29.69F
DANVILLE*      LGT RAIN  46  39  79 S16G28    29.68S
RANTOUL*       DRIZZLE   46  44  93 S13G20    29.70F
MATTOON        CLOUDY    48  42  80 S13       29.71F
PARIS*         CLOUDY    47  40  77 S21G30    29.72F
$$

ILZ079-100>102-180300-
SOUTHWEST ILLINOIS

CITY           SKY/WX    TMP DP  RH WIND       PRES   REMARKS
ALTON          CLOUDY    55  48  76 S15       29.66F
BELLEVILLE     CLOUDY    57  48  72 SE8       29.66F
CAHOKIA*       CLOUDY    56  47  71 S12       29.66F
SPARTA*        CLOUDY    59  49  70 S7        29.71F
$$

ILZ064>066-069>071-074>076-080>082-084>086-088>090-092>094-180300-
SOUTH-CENTRAL ILLINOIS

CITY           SKY/WX    TMP DP  RH WIND       PRES   REMARKS
CARBONDALE     CLOUDY    61  49  64 S12       29.72F
CAIRO*         CLOUDY    63  51  66 S20G26    29.74F
EFFINGHAM*     CLOUDY    50  45  80 SE13G20   29.73F
MARION         CLOUDY    62  48  61 S16G22    29.74S
MT. VERNON     CLOUDY    54  45  71 SE7       29.73F
CENTRALIA*     CLOUDY    56  47  71 S13       29.70F
SALEM*         CLOUDY    55  44  66 SE10      29.71F
METROPOLIS*    MOCLDY    63  49  59 S14G24    29.77F
$$

ILZ067-068-072-073-078-083-087-091-180300-
SOUTHEAST ILLINOIS

CITY           SKY/WX    TMP DP  RH WIND       PRES   REMARKS
LAWRENCEVILLE  CLOUDY    51  41  68 S12       29.78F
FLORA*         CLOUDY    53  44  71 S13       29.74F
FAIRFIELD*     CLOUDY    55  43  65 SE8       29.74F
HARRISBURG*    CLOUDY    57  47  69 S8        29.76S
ROBINSON*      CLOUDY    49  39  68 S14G22    29.77F
CARMI*         CLOUDY    52  43  71 SE10      29.77F
$$

ABBREVIATIONS USED IN REMARKS
   TC - TEMPERATURE IN CELSIUS
  WCI - WIND CHILL INDEX
   HX - HEAT INDEX
  VSB - VISIBILITY
$$





USA.gov is the U.S. government's official web portal to all federal, state and local government web resources and services.